User: anonymous   Login
Location: Great Falls
(47.5000°N, 111.3000°W)
Time: 14:27:42
(UTC-06:00)
Language:

Hubble Space Telescope - Orbit

View from above orbital plane
View from above orbital plane
View from above satellite
View from above satellite

Ground track
Ground track

The orbit data is extracted from the following two-line orbital elements,

1 20580U 90037B   21204.35744344  .00000523  00000-0  20635-4 0  9997
2 20580  28.4688 187.5059 0002956  90.5279  57.3617 15.09686249516441
Epoch (UTC): 23 July 2021 08:34:43
Eccentricity: 0.0002956
inclination: 28.4688°
perigee height: 535 km
apogee height: 539 km
right ascension of ascending node: 187.5059°
argument of perigee: 90.5279°
revolutions per day: 15.09686249
mean anomaly at epoch: 57.3617°
orbit number at epoch: 51644

The dashed part of the orbit path shows where the satellite is in the earth's shadow,  

DLR